User: anonymous   Login
Location: Unspecified
(0.0000°N, 0.0000°E)
Time: 01:52:56
(UTC+00:00)
Language:

OBJECT D - Orbit

View from above orbital plane
View from above orbital plane
View from above satellite
View from above satellite

Ground track
Ground track

The orbit is defined by the following mean orbital elements,

1 66296U          26145.56638839 +.00000000 +00000-0 +25500-3 0 00003
2 66296  45.4041 241.8153 0006600 289.0847  70.9325 15.21353316    09
Epoch (UTC): 25 May 2026 13:35:35
Eccentricity: 0.0006600
inclination: 45.4041°
perigee height: 497 km
apogee height: 506 km
right ascension of ascending node: 241.8153°
argument of perigee: 289.0847°
revolutions per day: 15.21353316
mean anomaly at epoch: 70.9325°

The dashed part of the orbit path shows where the satellite is in the earth's shadow,  

DLR